Regional Weather Roundup
Issued by NWS

Home | Current Version | Previous Version | Text Only | Print | Product List | Glossary On
Versions: 1 2 3 4 5 6 7 8 9 10 11 12 13 14 15 16 17 18 19 20 21 22 23 24 25 26 27 28 29 30 31 32 33 34 35 36 37 38 39 40 41 42 43 44 45 46 47 48 49 50
000
ASUS44 KBMX 281910
RWRAL

ALABAMA REGIONAL WEATHER ROUNDUP
NATIONAL WEATHER SERVICE BIRMINGHAM AL
200 PM CDT MON JUL 28 2014

NOTE: "FAIR" INDICATES FEW OR NO CLOUDS BELOW 12,000 FEET
WITH NO SIGNIFICANT WEATHER AND/OR OBSTRUCTIONS TO VISIBILITY.

THE REMARK "TC" DENOTES TEMPERATURE IN DEGREES CELSIUS.

ALZ001>011-014-016>018-020-282000-
NORTH ALABAMA

CITY           SKY/WX    TMP DP  RH WIND       PRES   REMARKS
MUSCLE SHOALS  MOSUNNY   85  61  44 N9        30.02F
HUNTSVILLE     MOSUNNY   85  60  42 NW13G18   30.00S
DECATUR        MOSUNNY   83  61  47 NW10      30.00F
HALEYVILLE     FAIR      83  65  54 N9        30.04F
GADSDEN        MOSUNNY   88  61  40 W14G20    29.96S
$$

ALZ012-013-022-023-030>036-040>044-282000-
WEST CENTRAL ALABAMA

CITY           SKY/WX    TMP DP  RH WIND       PRES   REMARKS
TUSCALOOSA     SUNNY     93  65  39 NW10G20   29.96F HX  95
$$

ALZ015-024>027-033>036-040>044-282000-
CENTRAL ALABAMA

CITY           SKY/WX    TMP DP  RH WIND       PRES   REMARKS
BIRMINGHAM     MOSUNNY   92  60  34 W13       29.98F HX  91
MONTGOMERY     MOSUNNY   95  76  53 W13       29.93F HX 108
SHELBY CO ARPT SUNNY     92  67  43 NW9       29.96F HX  95
MAXWELL AFB    SUNNY     93  77  59 VRB7      29.93F HX 106
GREENVILLE     FAIR      92  74  55 W8        29.95F HX 101
$$

ALZ019-021-028-029-037-038-045>048-282000-
EAST CENTRAL ALABAMA

CITY           SKY/WX    TMP DP  RH WIND       PRES   REMARKS
ANNISTON       SUNNY     92  62  36 NW12G23   29.94F HX  92
ALEXANDER CITY HAZE      93  71  48 NW7       29.96F VSB 1/2 HX 100
AUBURN         MOSUNNY   88  72  58 W14       29.98F HX  94
$$

ALZ051>064-282000-
SOUTHWEST ALABAMA

CITY           SKY/WX    TMP DP  RH WIND       PRES   REMARKS
MOBILE         PTSUNNY   92  76  59 W9        30.00F HX 104
BROOKLEY FIELD MOSUNNY   94  76  55 W9        30.00F HX 106
EVERGREEN      MOSUNNY   96  74  48 W10G17    29.97F HX 107
$$

ALZ049-050-065>069-282000-
SOUTHEAST ALABAMA

CITY           SKY/WX    TMP DP  RH WIND       PRES   REMARKS
DOTHAN         MOSUNNY   93  74  53 W10       29.98F HX 103
OZARK          MOSUNNY   92  75  57 W13       29.95F HX 103
TROY           LGT RAIN  88  78  72 VRB7      29.95F HX 101
EUFAULA        FAIR      96  75  50 W9G16     29.91F THUNDER HX 108
$$



USA.gov is the U.S. government's official web portal to all federal, state and local government web resources and services.